Overview Statistics Trail Chart Weather Telemetry Raw packets
 

This is the latest recevied weather packets stored in our database for station/object KD4EG. If no packets are shown the sender has not sent any weather packets the latest 10 day(s).

<< 17 18 19 20 21 22 23 >>
Time Temp. Humidity Pressure Rain* Wind** Luminosity Snow
1788527862 27.22° C 77% 1019.3 hPa 0 mm - 275 W/m² -
1788527559 27.78° C 77% 1019.6 hPa 0 mm - 280 W/m² -
1788527258 27.78° C 77% 1019.2 hPa 0 mm - 260 W/m² -
1788526958 27.22° C 78% 1019.7 hPa 0 mm - 223 W/m² -
1788526654 26.67° C 79% 1019.2 hPa 0 mm - 218 W/m² -
1788526363 26.67° C 80% 1019.3 hPa 0 mm - 206 W/m² -
1788526044 26.67° C 81% 1019.5 hPa 0 mm - 186 W/m² -
1788525740 26.11° C 81% 1019.7 hPa 0 mm - 173 W/m² -
1788525435 25.56° C 83% 1019.8 hPa 0 mm - 161 W/m² -
1788525130 25.56° C 84% 1019.6 hPa 0 mm - 147 W/m² -
1788524830 25° C 84% 1019.6 hPa 0 mm - 140 W/m² -
1788524525 25° C 85% 1019.5 hPa 0 mm - 124 W/m² -
1788524220 24.44° C 86% 1019.4 hPa 0 mm - 102 W/m² -
1788523915 24.44° C 87% 1019.5 hPa 0 mm - 86 W/m² -
1788523612 24.44° C 87% 1019.6 hPa 0 mm - 48 W/m² -
1788523308 23.89° C 88% 1019.5 hPa 0 mm - 42 W/m² -
1788523003 23.89° C 88% 1019.6 hPa 0 mm - 39 W/m² -
1788522698 23.89° C 88% 1019.4 hPa 0 mm - 37 W/m² -
1788522398 23.89° C 88% 1019.5 hPa 0 mm - 34 W/m² -
1788522097 23.89° C 89% 1019.5 hPa 0 mm - 32 W/m² -
1788521792 23.89° C 89% 1019.5 hPa 0 mm - 29 W/m² -
1788521491 23.89° C 89% 1019.5 hPa 0 mm - 25 W/m² -
1788521187 23.89° C 89% 1019.5 hPa 0 mm - 22 W/m² -
1788520883 23.33° C 89% 1019.4 hPa 0 mm - 17 W/m² -
1788520578 23.33° C 90% 1019.3 hPa 0 mm - 14 W/m² -

* Rain latest hour (hover to see other rain measurements)
** Current wind speed in m/s (hover to see current wind gust speed)